Flag for Uzbekistan Weather past 2 weeks in Samarkand, Uzbekistan

Now
75 °F

Partly sunny.


Feels Like: 77 °F
Forecast: 51 / 79 °F
Wind: 6 mph from Northwest

Location: Samarkand

Current Time: Oct 2, 2014 at 5:36:44 PM

Latest Report: Oct 2, 2014 at 4:30 PM


Visibility: N/A

Pressure: 30.12 "Hg

Humidity: 39%

Dew point: 48 °F

Location of SamarkandLocation

Historic Weather in Samarkand — Graph

°F

Samarkand temperature yesterday

Maximum temperature yesterday: 77 °F (at 2:00 PM)
Minimum temperature yesterday: 55 °F (at 4:30 AM)
Average temperature yesterday: 64 °F

Past Weeks' High & Low Weather Summary

 TemperatureHumidityPressure
High91 °F (Sep 17, 4:00 PM)94% (Sep 28, 4:00 AM)30.24 "Hg (Sep 28, 4:00 AM)
Low50 °F (Sep 20, 5:00 AM)11% (Sep 26, 12:00 PM)29.71 "Hg (Sep 17, 4:00 PM)
Average69 °F41%29.98 "Hg
* Reported Sep 17 4:00 PM — Oct 2 4:00 PM, Samarkand, Weather by CustomWeather, © 2014

Note: Actual official high and low records may vary slightly from our data, if they occured in-between our weather recording intervals... More about our weather records

Advertising

Samarkand weather history for previous 24 hours

 ConditionsComfort  
Time TempWeatherWind HumidityBarometerVisibility
4:00 PM
Oct 2
75 °FPartly sunny.6 mph36%30.09 "HgN/A
3:30 PM75 °FPartly sunny.10 mph39%30.09 "HgN/A
3:00 PM75 °FPartly sunny.10 mph41%30.09 "HgN/A
2:30 PM77 °FScattered clouds.13 mph42%30.09 "HgN/A
2:00 PM77 °FPassing clouds.15 mph42%30.09 "HgN/A
1:30 PM77 °FClear.20 mph42%30.09 "HgN/A
1:00 PM81 °FClear.13 mph32%30.07 "HgN/A
12:30 PM81 °FClear.6 mph30%30.07 "HgN/A
12:00 PM77 °FScattered clouds.8 mph32%30.07 "HgN/A
11:30 AM73 °FScattered clouds.6 mph44%30.07 "HgN/A
11:00 AM72 °FScattered clouds.6 mph44%30.09 "HgN/A
10:30 AM68 °FPartly sunny.8 mph53%30.09 "HgN/A
10:00 AM66 °FPartly sunny.3 mph60%30.12 "HgN/A
9:30 AM66 °FBroken clouds.1 mph56%30.12 "HgN/A
9:00 AM64 °FBroken clouds.1 mph64%30.12 "HgN/A
8:30 AM63 °FBroken clouds.1 mph68%30.09 "HgN/A
8:00 AM61 °FBroken clouds.3 mph68%30.09 "HgN/A
7:30 AM61 °FBroken clouds.1 mph68%30.09 "HgN/A
7:00 AM59 °FPartly sunny.No wind72%30.09 "HgN/A
6:30 AM57 °FPartly sunny.3 mph77%30.07 "HgN/A
6:00 AM57 °FPassing clouds.1 mph77%30.07 "HgN/A
5:30 AM59 °FPassing clouds.1 mph72%30.07 "HgN/A
5:00 AM57 °FPassing clouds.6 mph77%30.04 "HgN/A
4:30 AM57 °FPassing clouds.3 mph77%30.04 "HgN/A
4:00 AM59 °FPassing clouds.6 mph68%30.01 "HgN/A
3:30 AM59 °FPassing clouds.3 mph68%30.01 "HgN/A
3:00 AM59 °FPartly cloudy.6 mph68%30.01 "HgN/A
2:30 AM59 °FPassing clouds.6 mph68%30.01 "HgN/A
2:00 AM59 °FPassing clouds.6 mph68%30.04 "HgN/A
1:30 AM59 °FPassing clouds.6 mph68%30.04 "HgN/A
1:00 AM59 °FPassing clouds.6 mph68%30.04 "HgN/A
12:30 AM59 °FClear.3 mph68%30.04 "HgN/A
12:00 AM59 °FClear.3 mph68%30.04 "HgN/A
11:30 PM
Oct 1
59 °FClear.3 mph68%30.04 "HgN/A
11:00 PM59 °FClear.1 mph68%30.04 "HgN/A
10:30 PM61 °FClear.8 mph63%30.07 "HgN/A
10:00 PM59 °FClear.6 mph68%30.07 "HgN/A
9:30 PM63 °FPassing clouds.10 mph59%30.07 "HgN/A
9:00 PM61 °FClear.3 mph68%30.07 "HgN/A
8:30 PM63 °FClear.6 mph64%30.07 "HgN/A
8:00 PM64 °FClear.6 mph56%30.07 "HgN/A
7:30 PM66 °FClear.6 mph52%30.07 "HgN/A
7:00 PM66 °FPassing clouds.3 mph52%30.07 "HgN/A
6:30 PM66 °FPassing clouds.8 mph52%30.09 "HgN/A
6:00 PM68 °FPartly sunny.8 mph49%30.09 "HgN/A
5:30 PM68 °FPartly sunny.8 mph49%30.09 "HgN/A
5:00 PM70 °FScattered clouds.13 mph43%30.09 "HgN/A
Weather by CustomWeather, © 2014

See weather overviewHow to use our weather pages